Notices

What's New in latest Release from April 7th, 2021:

- Updated Glossary, including Speed of Maximum Gust, and Total Hourly Precipitation

- Updated national and regional climate services offices contacts and prices information

- Addition of station inventory lists for 1981-2010, 1971-2000, and 1961-1990 Normals.

If you haven't already, please take our survey and provide feedback about our website: https://eccc.sondage-survey.ca/f/LanguageSelection.aspx?s=442ca660-fcf1-47c0-95a9-59707d6fd709

Hourly Data Report for January 29, 2020

SATURNA ISLAND CS
BRITISH COLUMBIA
Current Station Operator: ECCC - MSC

48°47'02.067" N
123°02'41.082" W
24.40 m
1017101
71473
WEZ

Download Data

Hourly Data (January 2020)
Hourly Data Report for January 29, 2020
TIME
LST
Temp Definition
°C
Dew Point Definition
°C
Rel Hum Definition
%
Precip. Amount Definition
mm

Wind Dir Definition
10's deg

Wind Spd Definition
km/h
Visibility Definition
km
Stn Press Definition
kPa
Hmdx Definition


Wind Chill Definition


Weather Definition


00:00 7.5 6.8 95 0.0 10 20   101.81     LegendNANA
01:00 7.8 6.7 92 0.0 11 25   101.73     LegendNANA
02:00 8.9 7.2 89 0.0 17 25   101.71     LegendNANA
03:00 8.9 7.0 88 0.0 15 23   101.65     LegendNANA
04:00 8.8 7.0 89 0.0 18 26   101.56     LegendNANA
05:00 8.6 7.1 90 0.2 16 42   101.39     LegendNANA
06:00 8.5 6.9 89 0.6 18 43   101.26     LegendNANA
07:00 8.4 6.8 89 1.0 17 46   101.23     LegendNANA
08:00 8.3 6.7 89 0.8 17 58   101.15     LegendNANA
09:00 7.9 6.6 92 1.8 18 46   101.17     LegendNANA
10:00 8.1 6.9 93 2.2 18 42   101.21     LegendNANA
11:00 8.3 7.0 92 1.2 18 51   101.17     LegendNANA
12:00 8.4 7.0 91 0.2 19 50   101.18     LegendNANA
13:00 8.9 7.3 90 0.0 20 29   101.35     LegendNANA
14:00 10.3 7.7 84 0.0 20 33   101.32     LegendNANA
15:00 9.7 7.1 84 0.0 21 32   101.43     LegendNANA
16:00 8.6 7.2 91 0.0 20 24   101.56     LegendNANA
17:00 7.7 6.4 91 0.0 22 13   101.67     LegendNANA
18:00 7.5 6.3 92 0.0 24 8   101.75     LegendNANA
19:00 7.5 6.3 92 0.0 23 17   101.86     LegendNANA
20:00 7.5 5.7 88 0.0 23 17   101.93     LegendNANA
21:00 6.8 4.8 87 0.0 22 14   101.96     LegendNANA
22:00 6.5 4.9 89 0.0 22 15   101.99     LegendNANA
23:00 7.0 4.8 86 0.0 18 14   101.95     LegendNANA

Notes on Data Quality.

Legend

  • E = Estimated
  • M = Missing
  • NA = Not Available*
  • [empty] = Indicates an unobserved value
Date modified: